• en France
  • Liste des pays
  • À 7 jours
  • Température de l'eau
  • Carte satellitaire
  • Carte météo
  • Widgets météo
  • user-avatar
    Se connecter

    Météo par heure à Dryja

    Ce jour, 20 Octobre, Samedi

    Heure Température Précipitation Vent Pression Humidité
    00:00 +11°C° 0 mm 1 m/s 758 mmHg 75%
    01:00 +10°C° 0 mm 0 m/s 758 mmHg 75%
    02:00 +10°C° 0 mm 0 m/s 758 mmHg 76%
    03:00 +12°C° 0 mm 1 m/s 758 mmHg 76%
    04:00 +12°C° 0 mm 1 m/s 758 mmHg 77%
    05:00 +12°C° 0 mm 1 m/s 758 mmHg 79%
    06:00 +12°C° 0 mm 1 m/s 758 mmHg 80%
    07:00 +12°C° 0 mm 2 m/s 758 mmHg 82%
    08:00 +12°C° 0 mm 2 m/s 758 mmHg 79%
    09:00 +13°C° 0 mm 2 m/s 758 mmHg 77%
    10:00 +12°C° 0 mm 3 m/s 758 mmHg 74%
    11:00 +12°C° 0 mm 3 m/s 758 mmHg 71%
    12:00 +13°C° 0 mm 3 m/s 758 mmHg 67%
    13:00 +13°C° 0 mm 4 m/s 758 mmHg 63%
    14:00 +12°C° 0.1 mm 4 m/s 758 mmHg 62%
    15:00 +12°C° 0.1 mm 4 m/s 758 mmHg 62%
    16:00 +11°C° 0.1 mm 4 m/s 758 mmHg 61%
    17:00 +11°C° 0.1 mm 4 m/s 758 mmHg 63%
    18:00 +11°C° 0.1 mm 4 m/s 759 mmHg 65%
    19:00 +10°C° 0.1 mm 4 m/s 759 mmHg 67%
    20:00 +10°C° 0.1 mm 4 m/s 759 mmHg 69%
    21:00 +10°C° 0.1 mm 4 m/s 759 mmHg 71%
    22:00 +9°C° 0.1 mm 3 m/s 759 mmHg 72%
    23:00 +9°C° 0.1 mm 3 m/s 759 mmHg 75%

    Demain, 21 Octobre, Dimanche

    Heure Température Précipitation Vent Pression Humidité
    00:00 +8°C° 0.1 mm 3 m/s 759 mmHg 78%
    01:00 +8°C° 0.1 mm 3 m/s 759 mmHg 81%
    02:00 +7°C° 0 mm 2 m/s 759 mmHg 84%
    03:00 +7°C° 0 mm 2 m/s 759 mmHg 87%
    04:00 +6°C° 0 mm 2 m/s 759 mmHg 90%
    05:00 +6°C° 0 mm 2 m/s 760 mmHg 91%
    06:00 +7°C° 0 mm 1 m/s 760 mmHg 91%
    07:00 +7°C° 0 mm 1 m/s 760 mmHg 92%
    08:00 +8°C° 0 mm 1 m/s 760 mmHg 84%
    09:00 +10°C° 0 mm 1 m/s 761 mmHg 77%
    10:00 +11°C° 0 mm 1 m/s 761 mmHg 69%
    11:00 +12°C° 0 mm 1 m/s 761 mmHg 65%
    12:00 +13°C° 0 mm 1 m/s 760 mmHg 60%
    13:00 +14°C° 0 mm 1 m/s 760 mmHg 56%
    14:00 +13°C° 0 mm 1 m/s 760 mmHg 58%
    15:00 +13°C° 0 mm 1 m/s 760 mmHg 59%
    16:00 +13°C° 0 mm 1 m/s 760 mmHg 61%
    17:00 +11°C° 0 mm 0 m/s 760 mmHg 64%
    18:00 +10°C° 0 mm 0 m/s 760 mmHg 68%
    19:00 +9°C° 0 mm 0 m/s 760 mmHg 72%
    20:00 +8°C° 0 mm 0 m/s 760 mmHg 73%
    21:00 +9°C° 0 mm 1 m/s 760 mmHg 75%
    22:00 +9°C° 0 mm 1 m/s 760 mmHg 76%
    23:00 +8°C° 0 mm 1 m/s 760 mmHg 77%

    Après-demain, 22 Octobre, Lundi

    Heure Température Précipitation Vent Pression Humidité
    00:00 +8°C° 0 mm 1 m/s 760 mmHg 79%
    01:00 +8°C° 0 mm 1 m/s 760 mmHg 80%
    02:00 +7°C° 0 mm 1 m/s 760 mmHg 81%
    03:00 +7°C° 0 mm 1 m/s 760 mmHg 83%
    04:00 +7°C° 0 mm 1 m/s 759 mmHg 84%
    05:00 +6°C° 0 mm 1 m/s 759 mmHg 85%
    06:00 +6°C° 0 mm 1 m/s 759 mmHg 85%
    07:00 +6°C° 0 mm 1 m/s 759 mmHg 86%
    08:00 +7°C° 0 mm 2 m/s 759 mmHg 78%
    09:00 +9°C° 0 mm 2 m/s 759 mmHg 71%
    10:00 +10°C° 0 mm 2 m/s 759 mmHg 63%
    11:00 +11°C° 0 mm 3 m/s 758 mmHg 59%
    12:00 +12°C° 0 mm 3 m/s 758 mmHg 55%
    13:00 +13°C° 0 mm 3 m/s 757 mmHg 52%
    14:00 +12°C° 0 mm 3 m/s 757 mmHg 54%
    15:00 +12°C° 0 mm 3 m/s 757 mmHg 57%
    16:00 +12°C° 0 mm 2 m/s 756 mmHg 60%
    17:00 +11°C° 0.3 mm 3 m/s 756 mmHg 66%
    18:00 +10°C° 0.3 mm 4 m/s 757 mmHg 71%
    19:00 +8°C° 0.3 mm 4 m/s 757 mmHg 77%
    20:00 +8°C° 0.5 mm 4 m/s 757 mmHg 77%
    21:00 +8°C° 0.5 mm 5 m/s 757 mmHg 77%
    22:00 +8°C° 0.5 mm 5 m/s 757 mmHg 77%
    23:00 +7°C° 0 mm 5 m/s 757 mmHg 76%

    23 Octobre, Mardi

    Heure Température Précipitation Vent Pression Humidité
    00:00 +7°C° 0 mm 5 m/s 757 mmHg 76%
    01:00 +6°C° 0 mm 5 m/s 757 mmHg 75%
    02:00 +5°C° 0 mm 5 m/s 757 mmHg 78%
    03:00 +5°C° 0 mm 4 m/s 757 mmHg 80%
    04:00 +4°C° 0 mm 4 m/s 757 mmHg 83%
    05:00 +4°C° 0 mm 4 m/s 757 mmHg 84%
    06:00 +4°C° 0 mm 4 m/s 757 mmHg 85%
    07:00 +3°C° 0 mm 4 m/s 757 mmHg 86%
    08:00 +5°C° 0 mm 5 m/s 756 mmHg 80%
    09:00 +6°C° 0 mm 5 m/s 756 mmHg 73%
    10:00 +7°C° 0 mm 6 m/s 755 mmHg 67%
    11:00 +6°C° 0.1 mm 7 m/s 754 mmHg 66%
    12:00 +7°C° 0.1 mm 8 m/s 753 mmHg 66%
    13:00 +7°C° 0.1 mm 9 m/s 752 mmHg 65%
    14:00 +7°C° 0.5 mm 9 m/s 751 mmHg 69%
    15:00 +6°C° 0.5 mm 9 m/s 750 mmHg 72%
    16:00 +6°C° 0.5 mm 10 m/s 748 mmHg 75%
    17:00 +6°C° 1.6 mm 10 m/s 747 mmHg 78%
    18:00 +6°C° 1.6 mm 11 m/s 745 mmHg 81%
    19:00 +6°C° 1.6 mm 11 m/s 744 mmHg 83%
    20:00 +6°C° 1.4 mm 11 m/s 743 mmHg 84%
    21:00 +7°C° 1.4 mm 12 m/s 741 mmHg 84%
    22:00 +8°C° 1.4 mm 12 m/s 740 mmHg 84%
    23:00 +8°C° 0.9 mm 11 m/s 739 mmHg 82%

    24 Octobre, Mercredi

    Heure Température Précipitation Vent Pression Humidité
    00:00 +9°C° 0.9 mm 11 m/s 739 mmHg 79%
    01:00 +9°C° 0.9 mm 11 m/s 738 mmHg 77%
    02:00 +8°C° 0.1 mm 10 m/s 738 mmHg 76%
    03:00 +8°C° 0.1 mm 10 m/s 739 mmHg 75%
    04:00 +7°C° 0.1 mm 10 m/s 739 mmHg 74%
    05:00 +6°C° 0.2 mm 10 m/s 740 mmHg 69%
    06:00 +5°C° 0.2 mm 10 m/s 741 mmHg 64%
    07:00 +3°C° 0.2 mm 9 m/s 742 mmHg 59%
    08:00 +5°C° 0 mm 10 m/s 743 mmHg 56%
    09:00 +5°C° 0 mm 10 m/s 744 mmHg 52%
    10:00 +5°C° 0 mm 10 m/s 745 mmHg 48%
    11:00 +6°C° 0 mm 10 m/s 745 mmHg 47%
    12:00 +6°C° 0 mm 10 m/s 745 mmHg 45%
    13:00 +6°C° 0 mm 10 m/s 746 mmHg 44%
    14:00 +6°C° 0 mm 9 m/s 746 mmHg 45%
    15:00 +6°C° 0 mm 8 m/s 746 mmHg 46%
    16:00 +5°C° 0 mm 7 m/s 747 mmHg 47%
    17:00 +5°C° 0 mm 6 m/s 747 mmHg 49%
    18:00 +4°C° 0 mm 6 m/s 747 mmHg 51%
    19:00 +3°C° 0 mm 5 m/s 748 mmHg 53%
    20:00 +3°C° 0 mm 5 m/s 748 mmHg 56%
    21:00 +3°C° 0 mm 5 m/s 748 mmHg 58%
    22:00 +4°C° 0 mm 4 m/s 748 mmHg 60%
    23:00 +3°C° 0 mm 4 m/s 748 mmHg 64%

    25 Octobre, Jeudi

    Heure Température Précipitation Vent Pression Humidité
    00:00 +3°C° 0 mm 4 m/s 748 mmHg 68%
    01:00 +3°C° 0 mm 4 m/s 748 mmHg 72%
    02:00 +3°C° 0 mm 4 m/s 748 mmHg 74%
    03:00 +3°C° 0 mm 4 m/s 748 mmHg 76%
    04:00 +1°C° 0 mm 4 m/s 748 mmHg 79%
    05:00 +3°C° 0.1 mm 4 m/s 748 mmHg 81%
    06:00 +4°C° 0.1 mm 4 m/s 747 mmHg 83%
    07:00 +4°C° 0.1 mm 4 m/s 747 mmHg 85%
    08:00 +5°C° 0.4 mm 5 m/s 747 mmHg 86%
    09:00 +7°C° 0.4 mm 5 m/s 747 mmHg 88%
    10:00 +8°C° 0.4 mm 6 m/s 747 mmHg 89%
    11:00 +9°C° 0.1 mm 7 m/s 746 mmHg 83%
    12:00 +10°C° 0.1 mm 8 m/s 746 mmHg 78%
    13:00 +11°C° 0.1 mm 9 m/s 745 mmHg 72%
    14:00 +10°C° 0 mm 9 m/s 745 mmHg 73%
    15:00 +10°C° 0 mm 8 m/s 745 mmHg 75%
    16:00 +9°C° 0 mm 8 m/s 745 mmHg 76%
    17:00 +9°C° 0.1 mm 8 m/s 746 mmHg 78%
    18:00 +9°C° 0.1 mm 8 m/s 746 mmHg 80%
    19:00 +9°C° 0.1 mm 8 m/s 746 mmHg 82%
    20:00 +9°C° 0.1 mm 8 m/s 746 mmHg 82%
    21:00 +9°C° 0.1 mm 8 m/s 746 mmHg 81%
    22:00 +9°C° 0.1 mm 8 m/s 746 mmHg 81%
    23:00 +9°C° 0.1 mm 8 m/s 745 mmHg 81%
    Voir plus